Regional Weather Roundup
Issued by NWS

Home | Current Version | Previous Version | Text Only | Print | Product List | Glossary Off
Versions: 1 2 3 4 5 6 7 8 9 10 11 12 13 14 15 16 17 18 19 20 21 22 23 24 25 26 27 28 29 30 31 32 33 34 35 36 37 38 39 40 41 42 43 44 45 46 47 48 49 50

000
ASUS43 KOAX 240210
RWRNE

WEATHER ROUNDUP FOR NEBRASKA
NATIONAL WEATHER SERVICE OMAHA NE
900 PM CDT TUE MAY 23 2017

NOTES: SATELLITE DATA IS BEING USED TO AUGMENT CLOUD COVER ABOVE
       12000 FEET.
       "FAIR" INDICATES FEW OR NO CLOUDS BELOW 12,000 FEET WITH NO
       SIGNIFICANT WEATHER AND/OR OBSTRUCTIONS TO VISIBILITY.

  * THESE STATIONS DO NOT REPORT WEATHER SUCH AS RAIN...SNOW OR FOG.

NEZ001>004-019>022-054>056-240300-
NEBRASKA PANHANDLE

CITY           SKY/WX    TMP DP  RH WIND       PRES   REMARKS
SCOTTSBLUFF    CLEAR     54  39  57 NE8       30.04S
ALLIANCE       CLEAR     50  37  61 N8        30.03S
CHADRON        CLEAR     53  39  59 NE3       30.03S
GORDON         FAIR      49  36  62 N6        30.03S
KIMBALL        CLEAR     53  32  46 N8        30.07S
SIDNEY         CLEAR     51  36  56 NE8       30.05R
$$

NEZ057>060-069>072-079>082-240300-
SOUTHWEST NEBRASKA

CITY           SKY/WX    TMP DP  RH WIND       PRES   REMARKS
NORTH PLATTE   CLEAR     53  36  52 N10       29.99R
IMPERIAL       CLEAR     52  35  52 N9        30.01R
LEXINGTON      PTCLDY    53  40  61 N15       29.96S
MCCOOK         CLEAR     54  37  52 N10       29.98R
OGALLALA       CLEAR     54  36  49 N8        30.01S
$$

NEZ005>010-023>029-035>040-094-240300-
NORTH CENTRAL NEBRASKA

CITY           SKY/WX    TMP DP  RH WIND       PRES   REMARKS
VALENTINE      PTCLDY    52  37  56 N10       30.00S
AINSWORTH      CLOUDY    50  41  71 N14G21    29.98F
BROKEN BOW     CLOUDY    53  41  63 N13       29.96R
O`NEILL        CLOUDY    51  42  72 N16       29.95S
ORD            CLOUDY    52  39  61 N14G24    29.94R
THEDFORD       PTCLDY    51  40  66 N8        30.00S
$$

NEZ041-046>049-061>064-073>077-083>087-240300-
SOUTH CENTRAL NEBRASKA

CITY           SKY/WX    TMP DP  RH WIND       PRES   REMARKS
GRAND ISLAND   CLOUDY    52  42  69 N17       29.93S
AURORA         MOCLDY    52  41  66 N18G24    29.92S
HASTINGS       CLOUDY    53  41  63 N17G24    29.93S
HEBRON         CLOUDY    55  44  67 NW8       29.89F
HOLDREGE       CLOUDY    53  41  64 N8        29.95S
KEARNEY *      CLOUDY    54  37  54 N17       29.95S
YORK           CLOUDY    54  41  62 NW16      29.90S
$$

NEZ011>018-030>034-042>045-240300-
NORTHEAST NEBRASKA

CITY           SKY/WX    TMP DP  RH WIND       PRES   REMARKS
NORFOLK        PTCLDY    50  44  80 NW13      29.88R
ALBION         CLOUDY    51  45  80 NW10      29.92S
BLAIR          LGT RAIN  50  47  87 N9        29.83S
FREMONT        CLOUDY    53  45  74 NW14      29.86S
TEKAMAH        CLOUDY    52  47  83 NW9       29.84S
WAYNE          CLOUDY    51  50  97 NW13      29.87R
$$

NEZ050>053-065>068-078-088>093-240300-
SOUTHEAST NEBRASKA

CITY           SKY/WX    TMP DP  RH WIND       PRES   REMARKS
LINCOLN        MOCLDY    54  47  77 NW12      29.87S
OMAHA EPPLEY   CLOUDY    52  47  83 NW8       29.83S
BEATRICE       MOCLDY    53  46  77 NW8       29.86S
FALLS CITY     CLOUDY    54  46  74 NW12      29.82R
NEBRASKA CITY  MOCLDY    52  47  82 N7        29.84S
PLATTSMOUTH    CLOUDY    52  46  82 NW7       29.83F
$$

NEZ044-045-051>053-067-240300-
OMAHA AREA

CITY           SKY/WX    TMP DP  RH WIND       PRES   REMARKS
OMAHA EPPLEY   CLOUDY    52  47  83 NW8       29.83S
BLAIR          LGT RAIN  50  47  87 N9        29.83S
FREMONT        CLOUDY    53  45  74 NW14      29.86S
MILLARD        CLOUDY    56  48  74 NW8       29.83F
OFFUTT AFB     LGT RAIN  54  48  82 N8        29.82F
PLATTSMOUTH    CLOUDY    52  46  82 NW7       29.83F
WAHOO          CLOUDY    53  45  75 N16G22    29.85S
$$




USA.gov is the U.S. government's official web portal to all federal, state and local government web resources and services.